This is the latest recevied weather packets stored in our database for station/object WD4IXD. If no packets are shown the sender has not sent any weather packets the latest 10 day(s).
| Time | Temp. | Humidity | Pressure | Rain* | Wind** | Luminosity | Snow |
|---|---|---|---|---|---|---|---|
| 1777955704 | 9.44° C | 86% | 1014.2 hPa | 1.78 mm | - | 0 W/m² | - |
| 1777955404 | 9.44° C | 86% | 1014.2 hPa | 1.52 mm | - | 0 W/m² | - |
| 1777955115 | 9.44° C | 86% | 1014.3 hPa | 1.78 mm | - | 0 W/m² | - |
| 1777954815 | 9.44° C | 85% | 1014.1 hPa | 2.03 mm | - | 0 W/m² | - |
| 1777954504 | 9.44° C | 85% | 1014.2 hPa | 2.54 mm | - | 0 W/m² | - |
| 1777954215 | 9.44° C | 84% | 1014.2 hPa | 2.54 mm | - | 0 W/m² | - |
| 1777953915 | 9.44° C | 83% | 1014.3 hPa | 2.29 mm | - | 0 W/m² | - |
| 1777953603 | 9.44° C | 83% | 1014.1 hPa | 2.29 mm | - | 0 W/m² | - |
| 1777953315 | 10° C | 82% | 1014.1 hPa | 2.03 mm | - | 0 W/m² | - |
| 1777953015 | 10° C | 80% | 1014 hPa | 2.03 mm | - | 0 W/m² | - |
| 1777952703 | 10° C | 79% | 1014.1 hPa | 1.52 mm | - | 0 W/m² | - |
| 1777952404 | 10.56° C | 78% | 1014 hPa | 1.52 mm | - | 0 W/m² | - |
| 1777952115 | 10.56° C | 76% | 1014 hPa | 1.02 mm | - | 0 W/m² | - |
| 1777951804 | 11.11° C | 74% | 1013.9 hPa | 1.02 mm | - | 0 W/m² | - |
| 1777951515 | 11.11° C | 71% | 1013.9 hPa | 0.76 mm | - | 0 W/m² | - |
| 1777951204 | 11.67° C | 69% | 1013.9 hPa | 0.51 mm | - | 0 W/m² | - |
| 1777950915 | 11.67° C | 67% | 1013.8 hPa | 0 mm | - | 0 W/m² | - |
| 1777950604 | 12.22° C | 65% | 1013.6 hPa | 0 mm | - | 0 W/m² | - |
| 1777950316 | 12.22° C | 64% | 1013.4 hPa | 0 mm | - | 0 W/m² | - |
| 1777950004 | 12.22° C | 65% | 1013.2 hPa | 0 mm | - | 0 W/m² | - |
| 1777949715 | 12.22° C | 65% | 1013 hPa | 0 mm | - | 0 W/m² | - |
| 1777949404 | 12.22° C | 65% | 1013 hPa | 0 mm | - | 0 W/m² | - |
| 1777949115 | 12.22° C | 65% | 1013 hPa | 0 mm | - | 0 W/m² | - |
| 1777948803 | 12.78° C | 65% | 1012.8 hPa | 0 mm | - | 0 W/m² | - |
| 1777948515 | 12.78° C | 64% | 1012.8 hPa | 0 mm | - | 0 W/m² | - |
* Rain latest hour (hover to see other rain measurements)
** Current wind speed in m/s (hover to see current wind gust speed)